[[{"header":{"parameterUnit":"m.s-1","parameterCategory":1,"la1":30.2991,"la2":30.254,"lo1":-89.0895,"lo2":-89.0444,"dy":0.0017,"dx":0.0017,"nx":28,"ny":28,"refTime":"2023-09-17T21:00:00:Z","depth":0,"parameterNumber":2,"parameterNumberName":"U-component_of_WINDS"},"data":[0,0,0,0,0,0,0,0,0,0,0,0,0,0,0,0,0,0,0,0,0,0,0,0,0,0,0,0,0,0,0,0,0,0,0,0,0,0,0,0,0,0,0,0,0,0,0,0,0,0,0,0,0,0,0,0,0,0,-1.4095,-1.4096,0,-1.4178,-1.4179,-1.418,-1.422,-1.422,-1.422,-1.422,-1.4307,-1.4309,-1.4311,0,0,0,0,0,0,0,0,0,0,0,0,0,-1.397,-1.3972,-1.4095,-1.4096,-1.4097,-1.4178,-1.4179,-1.418,-1.422,-1.422,-1.422,-1.422,-1.4306,-1.4309,-1.4312,0,0,0,0,0,0,0,0,0,0,0,0,0,-1.4036,-1.3973,-1.4094,-1.4127,-1.413,-1.4178,-1.4179,-1.4181,-1.422,-1.422,-1.422,-1.422,-1.4305,-1.4309,-1.4312,-1.4334,0,0,-1.4323,-1.4324,0,0,0,0,0,0,0,0,-1.4032,-1.4041,-1.4121,-1.4124,-1.4129,-1.4189,-1.4167,-1.4232,-1.4221,-1.4186,-1.422,-1.422,-1.4268,-1.4274,-1.429,-1.4338,-1.4342,-1.4323,-1.4325,-1.4327,-1.4328,0,0,0,0,0,0,0,-1.4028,-1.4037,-1.4128,-1.4122,-1.4127,-1.4137,-1.4146,-1.418,-1.4226,-1.4189,-1.4192,-1.4202,-1.427,-1.4287,-1.4292,-1.4343,-1.4323,-1.4326,-1.4328,-1.433,-1.4413,-1.4413,0,0,0,0,0,0,-1.4018,-1.4033,-1.4125,-1.413,-1.4079,-1.4139,-1.415,-1.417,-1.4226,-1.4234,-1.4202,-1.4203,-1.4281,-1.4288,-1.4296,-1.4325,-1.4327,-1.433,-1.4332,-1.4413,-1.4413,-1.4413,0,0,0,0,0,0,-1.4015,-1.4026,-1.4122,-1.4083,-1.4096,-1.4141,-1.4163,-1.4171,-1.4188,-1.4235,-1.4244,-1.421,-1.4281,-1.4291,-1.4324,-1.4328,-1.4331,-1.4335,-1.4413,-1.4413,-1.4413,-1.4384,0,0,0,0,0,0,-1.4011,-1.4024,-1.4033,-1.4082,-1.4097,-1.4149,-1.4164,-1.4173,-1.4194,-1.4197,-1.4245,-1.4254,-1.4282,-1.4319,-1.4327,-1.4333,-1.4337,-1.4412,-1.4413,-1.4413,-1.4384,-1.4383,-1.4381,0,0,0,0,0,-1.4007,-1.4022,-1.4034,-1.4044,-1.411,-1.4149,-1.4157,-1.4189,-1.4194,-1.4203,-1.4233,-1.4252,-1.4326,-1.4322,-1.4332,-1.4339,-1.4412,-1.4413,-1.4413,-1.4385,-1.4383,-1.4381,0,0,0,0,0,0,-1.3973,-1.4029,-1.4043,-1.4074,-1.4106,-1.4156,-1.4168,-1.4186,-1.4218,-1.4219,-1.4258,-1.4268,-1.4298,-1.4322,-1.4316,-1.4363,-1.4371,-1.4373,-1.4346,-1.4345,-1.4343,-1.4337,-1.434,0,0,0,0,0,-1.3969,-1.3996,-1.4044,-1.4067,-1.4083,-1.4122,-1.4141,-1.4162,-1.4197,-1.4211,-1.4244,-1.4277,-1.4308,-1.4328,-1.4359,-1.4388,-1.4399,-1.4397,-1.4396,-1.4394,-1.4396,-1.4413,-1.4412,-1.4414,-1.4414,-1.4414,0,0,-1.3962,-1.3996,-1.4011,-1.4061,-1.4089,-1.4116,-1.4134,-1.4162,-1.4182,-1.4216,-1.4249,-1.4274,-1.4314,-1.4345,-1.436,-1.4365,-1.4398,-1.4395,-1.4393,-1.4396,-1.4413,-1.4413,-1.4412,-1.4414,-1.4414,-1.4414,0,0,-1.3963,-1.3991,-1.4013,-1.404,-1.4081,-1.4107,-1.4112,-1.4158,-1.4176,-1.421,-1.4235,-1.426,-1.4312,-1.4339,-1.436,-1.4369,-1.4387,-1.4378,-1.437,-1.4386,-1.4386,-1.4386,-1.4389,-1.439,-1.4379,-1.4379,-1.4379,0,-1.3949,-1.399,-1.4023,-1.4049,-1.407,-1.4101,-1.4123,-1.4148,-1.4197,-1.4211,-1.4216,-1.4282,-1.4311,-1.4348,-1.435,-1.4366,-1.4373,-1.4373,-1.4383,-1.4384,-1.4384,-1.4387,-1.4388,-1.4378,-1.4378,-1.4378,-1.4378,0,-1.3971,-1.3999,-1.4012,-1.4058,-1.4081,-1.4105,-1.4141,-1.416,-1.4179,-1.4205,-1.4238,-1.4274,-1.4312,-1.4322,-1.4342,-1.4362,-1.4364,-1.4376,-1.4385,-1.4382,-1.4386,-1.4387,-1.4376,-1.4377,-1.4377,-1.4377,0,0,-1.3954,-1.4016,-1.402,-1.4041,-1.4088,-1.411,-1.4136,-1.4172,-1.4188,-1.422,-1.4243,-1.4285,-1.4296,-1.4319,-1.4341,-1.4355,-1.4359,-1.4365,-1.4366,-1.4363,-1.4384,-1.4375,-1.4376,-1.4371,-1.4372,-1.4372,-1.4381,0,-1.3961,-1.4008,-1.4037,-1.4072,-1.4098,-1.4127,-1.4149,-1.418,-1.4204,-1.423,-1.4256,-1.4286,-1.4298,-1.4312,-1.4326,-1.4356,-1.4364,-1.4355,-1.4393,-1.4393,-1.4382,-1.4378,-1.437,-1.4376,-1.4382,-1.4383,-1.4383,0,-1.3976,-1.4007,-1.4044,-1.4087,-1.4099,-1.4118,-1.4154,-1.4178,-1.4213,-1.423,-1.4255,-1.4277,-1.4305,-1.4311,-1.435,-1.4343,-1.436,-1.4376,-1.4377,-1.4382,-1.4388,-1.4383,-1.4379,-1.438,-1.4385,-1.4385,-1.4385,0,-1.396,-1.4011,-1.4039,-1.4056,-1.4107,-1.4119,-1.4141,-1.4176,-1.4196,-1.4227,-1.424,-1.4274,-1.4293,-1.4319,-1.4349,-1.4351,-1.4385,-1.4394,-1.44,-1.4399,-1.4406,-1.4405,-1.4404,-1.4416,-1.4416,-1.4416,-1.4416,0,-1.3965,-1.3987,-1.4033,-1.405,-1.4075,-1.4108,-1.4132,-1.4156,-1.4187,-1.421,-1.4236,-1.4257,-1.4296,-1.4322,-1.4346,-1.4374,-1.4382,-1.4396,-1.4403,-1.4394,-1.4392,-1.4406,-1.4407,-1.4416,-1.4416,-1.4416,-1.4416,0,-1.3952,-1.3984,-1.4017,-1.4061,-1.4073,-1.4089,-1.4127,-1.4145,-1.417,-1.4199,-1.4207,-1.4246,-1.4278,-1.431,-1.4353,-1.4369,-1.4396,-1.4405,-1.4384,-1.4388,-1.4392,-1.4391,-1.44,-1.4403,-1.4412,-1.4412,-1.4412,0,-1.3954,-1.3971,-1.4017,-1.4033,-1.4054,-1.4081,-1.4101,-1.4134,-1.4154,-1.4194,-1.4207,-1.424,-1.4269,-1.4317,-1.435,-1.4382,-1.4392,-1.4393,-1.4397,-1.4388,-1.4392,-1.4391,-1.4393,-1.4392,-1.4392,-1.4391,-1.4391,0,-1.3953,-1.3967,-1.3995,-1.4028,-1.4051,-1.4078,-1.4107,-1.4119,-1.4158,-1.4179,-1.421,-1.4232,-1.4275,-1.4308,-1.4344,-1.4366,-1.4385,-1.4389,-1.4392,-1.4384,-1.4372,-1.4379,-1.4381,-1.4389,-1.4389,-1.439,-1.439,-1.439,-1.3948,-1.3964,-1.3998,-1.4028,-1.4053,-1.4078,-1.4097,-1.4124,-1.4151,-1.4188,-1.4206,-1.4237,-1.4271,-1.4322,-1.4343,-1.4369,-1.4374,-1.4379,-1.438,-1.4381,-1.4379,-1.4367,-1.4375,-1.4376,-1.4376,-1.4376,-1.4376,0,-1.3948,-1.3972,-1.3998,-1.4037,-1.406,-1.4075,-1.4107,-1.4125,-1.4153,-1.4182,-1.4209,-1.4245,-1.4277,-1.4311,-1.4344,-1.4358,-1.4367,-1.4365,-1.4365,-1.437,-1.4372,-1.4366,-1.4357,-1.4357,-1.4357,-1.4357,-1.4357,-1.4357,-1.3952,-1.398,-1.3998,-1.4038,-1.4061,-1.4092,-1.4109,-1.4133,-1.4157,-1.4196,-1.4221,-1.4243,-1.4275,-1.431,-1.4339,-1.4348,-1.436,-1.4355,-1.4367,-1.4368,-1.437,-1.4371,-1.4366,-1.4357,-1.4357,-1.4363,-1.4363,-1.4363]},{"header":{"parameterUnit":"m.s-1","parameterCategory":1,"la1":30.2991,"la2":30.254,"lo1":-89.0895,"lo2":-89.0444,"dy":0.0017,"dx":0.0017,"nx":28,"ny":28,"refTime":"2023-09-17T21:00:00:Z","depth":0,"parameterNumber":3,"parameterNumberName":"V-component_of_WINDS"},"data":[0,0,0,0,0,0,0,0,0,0,0,0,0,0,0,0,0,0,0,0,0,0,0,0,0,0,0,0,0,0,0,0,0,0,0,0,0,0,0,0,0,0,0,0,0,0,0,0,0,0,0,0,0,0,0,0,0,0,0.1352,0.1347,0,0.0907,0.0902,0.0897,0.0663,0.0662,0.0662,0.0662,0.0199,0.0187,0.0175,0,0,0,0,0,0,0,0,0,0,0,0,0,0.199,0.1979,0.1352,0.1347,0.1341,0.0908,0.0902,0.0896,0.0663,0.0662,0.0662,0.0662,0.0203,0.0188,0.0174,0,0,0,0,0,0,0,0,0,0,0,0,0,0.1646,0.1976,0.1353,0.1173,0.1152,0.0909,0.0902,0.0894,0.0663,0.0662,0.0662,0.0661,0.0207,0.019,0.0172,0.0072,0,0,0.0117,0.0109,0,0,0,0,0,0,0,0,0.1666,0.1623,0.1205,0.1185,0.1161,0.084,0.0957,0.0618,0.0663,0.0849,0.0662,0.0661,0.0412,0.0377,0.0295,0.005,0.0031,0.0116,0.0105,0.0097,0.0092,0,0,0,0,0,0,0,0.169,0.164,0.1176,0.1199,0.1172,0.1111,0.1061,0.0892,0.0638,0.0832,0.0814,0.0765,0.04,0.0313,0.0282,0.0024,0.0116,0.01,0.0089,0.0082,-0.0329,-0.0329,0,0,0,0,0,0,0.1744,0.1662,0.119,0.1162,0.1418,0.11,0.1045,0.0944,0.064,0.0593,0.0766,0.0756,0.0344,0.0303,0.0265,0.0125,0.0097,0.008,0.007,-0.0328,-0.0329,-0.0329,0,0,0,0,0,0,0.1759,0.1704,0.1208,0.1407,0.1339,0.109,0.0978,0.0935,0.0848,0.059,0.0543,0.0724,0.0342,0.029,0.0122,0.0106,0.0072,0.0056,-0.0328,-0.0329,-0.0329,-0.0151,0,0,0,0,0,0,0.1778,0.1711,0.1673,0.1408,0.133,0.1075,0.0977,0.0927,0.0818,0.0801,0.0538,0.0494,0.0337,0.015,0.0104,0.0081,0.0042,-0.0328,-0.0328,-0.0329,-0.0157,-0.0145,-0.0135,0,0,0,0,0,0.1802,0.1739,0.1672,0.1616,0.1277,0.1075,0.103,0.0853,0.0818,0.0776,0.061,0.0502,0.0116,0.0135,0.0081,0.0052,-0.0328,-0.0328,-0.0329,-0.0162,-0.0148,-0.0136,0,0,0,0,0,0,0.2005,0.1701,0.1623,0.1474,0.1303,0.1036,0.0977,0.0874,0.0707,0.0697,0.0482,0.0425,0.0276,0.0146,0.0173,-0.0062,-0.0117,-0.0128,0.0028,0.0039,0.005,0.0083,0.0027,0,0,0,0,0,0.2034,0.1898,0.1638,0.1531,0.1449,0.1229,0.1134,0.1013,0.0826,0.0751,0.0573,0.0393,0.023,0.0127,-0.0036,-0.0176,-0.0239,-0.0223,-0.0212,-0.0202,-0.0209,-0.0296,-0.0293,-0.033,-0.033,-0.033,0,0,0.2089,0.1906,0.1833,0.1567,0.142,0.1281,0.1169,0.1027,0.0921,0.0728,0.0559,0.0422,0.0206,0.0051,-0.0026,-0.0061,-0.0213,-0.0202,-0.0192,-0.0206,-0.0296,-0.0292,-0.0289,-0.033,-0.033,-0.033,0,0,0.2119,0.1969,0.1862,0.1717,0.1497,0.135,0.1326,0.1074,0.0976,0.0803,0.0655,0.0524,0.025,0.0101,-0.0009,-0.0036,-0.0142,-0.0083,-0.0028,-0.011,-0.0107,-0.0105,-0.0117,-0.0118,-0.009,-0.0089,-0.0089,0,0.2215,0.2003,0.182,0.1686,0.1572,0.1394,0.1283,0.115,0.0887,0.0811,0.0777,0.0427,0.027,0.0076,0.007,-0.0013,-0.0051,-0.0055,-0.0092,-0.0092,-0.0094,-0.0107,-0.0111,-0.0081,-0.0082,-0.0083,-0.0083,0,0.2131,0.1986,0.1926,0.1679,0.1558,0.1437,0.1232,0.1131,0.1021,0.0878,0.0702,0.0506,0.0299,0.0245,0.0134,0.0034,0.002,-0.005,-0.011,-0.0078,-0.0095,-0.0101,-0.0069,-0.0072,-0.0074,-0.0076,0,0,0.2276,0.193,0.1911,0.1796,0.1539,0.1422,0.1291,0.1091,0.1008,0.0832,0.0714,0.0486,0.042,0.0294,0.0165,0.0094,0.0083,0.0031,0.0023,0.0046,-0.0043,0.0011,0.0008,0.0011,0.001,0.0008,-0.0025,0,0.2268,0.2029,0.1859,0.1683,0.1545,0.1374,0.1259,0.1088,0.0951,0.0811,0.0657,0.0498,0.0423,0.0346,0.0268,0.0101,0.0062,0.0101,-0.0103,-0.0108,-0.0045,-0.0,0.0055,0.0034,-0.0032,-0.0034,-0.0035,0,0.2227,0.206,0.1872,0.1629,0.1564,0.1465,0.1267,0.1137,0.0938,0.0842,0.0703,0.0571,0.0421,0.0376,0.0166,0.0197,0.0103,0.0008,0.0003,-0.0025,-0.007,-0.0028,0.0023,0.0019,-0.0046,-0.0045,-0.0044,0,0.235,0.2077,0.1928,0.1835,0.1549,0.1483,0.136,0.116,0.1051,0.0876,0.0802,0.0613,0.0509,0.0364,0.0183,0.0167,-0.001,-0.007,-0.0096,-0.0091,-0.0127,-0.0122,-0.0092,-0.0183,-0.0183,-0.0183,-0.0183,0,0.2358,0.2249,0.1979,0.1888,0.176,0.1565,0.1442,0.1304,0.1128,0.1004,0.0844,0.073,0.05,0.0357,0.0214,0.0061,0.0015,-0.0069,-0.0106,-0.0056,-0.0045,-0.0121,-0.0125,-0.0184,-0.0184,-0.0184,-0.0184,0,0.2473,0.2289,0.2115,0.1859,0.1792,0.1708,0.1487,0.139,0.1244,0.1089,0.1041,0.0811,0.0635,0.0441,0.0199,0.0103,-0.0043,-0.0095,0.0025,0.0004,-0.0012,-0.0008,-0.0031,-0.0045,-0.0123,-0.0122,-0.0121,0,0.2489,0.2402,0.2137,0.2044,0.1926,0.1779,0.1666,0.147,0.1359,0.1125,0.1056,0.0868,0.0708,0.0433,0.0242,0.0056,-0.0003,0.0002,-0.0032,0.0021,-0.0006,0.0001,-0.001,0.0012,0.0014,0.0015,0.0017,0,0.2538,0.2451,0.2297,0.2111,0.1982,0.1825,0.1661,0.1594,0.1364,0.1247,0.1067,0.0943,0.0696,0.0511,0.0301,0.017,0.0054,0.0029,0.0013,0.0062,0.0135,0.0094,0.0051,0.003,0.0029,0.0028,0.0027,0.0027,0.2601,0.2515,0.2316,0.2149,0.2006,0.1857,0.1753,0.1595,0.1442,0.1228,0.1121,0.0941,0.0741,0.0448,0.032,0.0174,0.0137,0.0114,0.0108,0.0105,0.0118,0.0161,0.0135,0.0134,0.0134,0.0133,0.0133,0,0.2639,0.2503,0.2352,0.213,0.1998,0.1904,0.1717,0.1612,0.1457,0.1282,0.1128,0.092,0.0739,0.0534,0.034,0.0262,0.0204,0.0217,0.022,0.0191,0.0162,0.0195,0.0268,0.0268,0.0268,0.0268,0.0268,0.0268,0.2644,0.2493,0.2382,0.2157,0.2019,0.1845,0.1746,0.1606,0.1466,0.1241,0.1091,0.096,0.0772,0.0563,0.0391,0.0335,0.027,0.0299,0.0228,0.0205,0.0194,0.0183,0.0213,0.0287,0.0288,0.0268,0.0268,0.0268]}]]